Precipitable_Water
0.74 0.77 0.79 0.79 0.80 0.83 0.84 0.85 0.84 0.85 0.84 0.82 0.84 0.86 0.88 0.91 0.98 1.01 1.02 1.04 1.04 1.04 1.10 1.10 1.10 1.15 1.10 1.05 1.03 0.90 0.87 0.87 0.72 0.76 0.73 0.80 0.71 0.64 0.66 0.66 0.69 0.67 0.66
0.74 0.80 0.82 0.88 0.87 0.85 0.84 0.84 0.84 0.82 0.86 0.86 0.91 0.97 1.06 1.09 1.09 1.07 1.08 1.10 1.10 1.10 1.11 1.14 1.13 1.15 1.13 1.11 1.08 1.02 0.99 0.94 0.94 0.76 0.77 0.81 0.78 0.73 0.67 0.64 0.66 0.69 0.67
0.73 0.80 0.81 0.84 0.87 0.85 0.86 0.87 0.88 0.88 0.88 0.95 0.99 1.00 1.01 1.03 1.05 1.06 1.08 1.10 1.13 1.14 1.13 1.11 1.13 1.14 1.08 1.03 0.99 0.98 1.03 1.05 0.98 0.90 0.83 0.80 0.80 0.77 0.68 0.69 0.68 0.70 0.73
0.66 0.71 0.77 0.81 0.84 0.85 0.86 0.85 0.86 0.88 0.91 0.95 0.93 0.90 0.96 1.00 1.03 1.05 1.07 1.06 1.03 1.03 1.06 1.10 1.08 1.09 1.04 1.02 0.99 0.99 1.01 1.02 0.94 0.93 0.92 0.86 0.76 0.77 0.70 0.65 0.64 0.70 0.68
0.64 0.68 0.76 0.82 0.86 0.90 0.88 0.86 0.86 0.88 0.89 0.88 0.87 0.91 0.96 0.97 0.98 1.00 1.00 1.02 1.02 1.03 1.04 1.07 1.10 1.07 1.09 1.05 0.98 0.97 0.98 1.00 0.91 0.86 0.92 0.85 0.72 0.67 0.62 0.67 0.65 0.67 0.71
0.59 0.65 0.75 0.80 0.85 0.89 0.91 0.91 0.88 0.88 0.86 0.85 0.86 0.89 0.91 0.94 0.96 0.97 0.97 0.96 1.00 0.97 0.99 1.01 1.04 1.06 1.06 1.02 1.02 0.94 0.89 0.95 0.83 0.79 0.93 0.80 0.70 0.67 0.67 0.67 0.67 0.64 0.60
0.57 0.60 0.71 0.78 0.82 0.88 0.93 0.94 0.91 0.89 0.86 0.84 0.86 0.87 0.88 0.93 0.96 0.98 1.02 1.00 0.99 1.00 0.97 0.99 1.01 1.04 0.98 0.97 0.94 0.90 0.97 0.98 0.91 0.86 0.83 0.78 0.69 0.69 0.70 0.66 0.66 0.67 0.65
0.52 0.57 0.71 0.77 0.81 0.87 0.91 0.94 0.93 0.95 0.88 0.85 0.84 0.83 0.86 0.90 0.93 0.96 0.98 1.01 1.02 1.01 1.00 0.99 0.99 0.98 0.96 0.95 0.91 0.85 0.88 0.93 0.91 0.86 0.84 0.81 0.82 0.78 0.72 0.69 0.69 0.70 0.72
0.45 0.54 0.61 0.72 0.77 0.81 0.81 0.88 0.91 0.90 0.90 0.87 0.87 0.83 0.83 0.84 0.93 0.92 0.97 0.96 0.97 1.01 1.04 1.03 0.98 0.96 0.97 0.98 0.95 0.89 0.87 0.88 0.91 0.90 0.85 0.83 0.83 0.76 0.74 0.74 0.70 0.70 0.67
0.45 0.49 0.59 0.66 0.75 0.77 0.84 0.87 0.92 0.96 0.94 0.93 0.89 0.88 0.89 0.85 0.84 0.87 0.93 0.94 0.93 0.95 1.01 1.00 0.93 0.91 0.89 0.88 0.87 0.82 0.77 0.75 0.76 0.77 0.77 0.78 0.77 0.76 0.85 0.86 0.85 0.78 0.79
0.46 0.46 0.53 0.62 0.70 0.73 0.78 0.83 0.88 0.91 0.96 0.92 0.93 0.94 0.95 0.95 0.93 0.89 0.89 0.90 0.90 0.91 0.89 0.86 0.87 0.85 0.84 0.81 0.79 0.74 0.69 0.75 0.73 0.73 0.73 0.75 0.84 0.93 0.99 1.00 1.00 0.96 0.89
0.45 0.44 0.49 0.57 0.62 0.65 0.68 0.74 0.77 0.81 0.84 0.88 0.91 0.91 0.98 0.97 0.98 0.97 0.91 0.90 0.88 0.83 0.77 0.80 0.83 0.85 0.84 0.83 0.79 0.80 0.78 0.79 0.79 0.81 0.87 0.95 0.98 1.01 1.04 1.06 1.06 1.03 1.03
0.46 0.44 0.44 0.56 0.59 0.61 0.60 0.65 0.68 0.72 0.76 0.78 0.83 0.84 0.89 0.94 0.98 1.00 1.00 0.98 0.95 0.90 0.89 0.87 0.93 0.94 0.92 0.90 0.90 0.92 0.93 0.93 0.94 0.95 0.96 0.97 0.99 1.03 1.04 1.02 1.03 1.02 1.01
0.38 0.43 0.45 0.50 0.53 0.58 0.62 0.62 0.64 0.68 0.72 0.72 0.78 0.81 0.83 0.89 0.92 0.98 0.98 0.98 0.97 0.97 0.96 0.95 0.98 1.03 1.02 1.04 1.01 1.02 1.00 1.02 1.01 0.97 0.97 0.99 1.00 0.99 0.96 0.97 0.93 0.93 0.90
0.37 0.37 0.43 0.51 0.56 0.56 0.60 0.62 0.62 0.65 0.70 0.74 0.78 0.83 0.84 0.85 0.91 0.98 0.97 0.96 0.96 0.97 0.96 0.96 0.94 0.94 0.93 0.94 0.94 0.97 0.98 0.99 0.95 0.95 0.94 0.93 0.92 0.91 0.89 0.90 0.86 0.84 0.81
0.33 0.33 0.36 0.44 0.55 0.58 0.58 0.62 0.67 0.65 0.68 0.76 0.83 0.84 0.88 0.93 0.95 0.96 0.98 0.98 0.98 0.95 0.91 0.87 0.87 0.87 0.87 0.88 0.88 0.88 0.91 0.92 0.91 0.91 0.90 0.88 0.84 0.84 0.78 0.78 0.77 0.73 0.68
0.28 0.31 0.33 0.37 0.48 0.55 0.57 0.59 0.60 0.64 0.66 0.68 0.74 0.84 0.87 0.89 0.92 0.93 0.94 0.93 0.94 0.93 0.86 0.83 0.83 0.84 0.83 0.83 0.83 0.82 0.79 0.81 0.79 0.78 0.77 0.74 0.73 0.71 0.68 0.65 0.63 0.59 0.56
0.26 0.29 0.30 0.33 0.41 0.50 0.54 0.57 0.61 0.62 0.59 0.60 0.69 0.75 0.78 0.84 0.85 0.88 0.90 0.89 0.83 0.82 0.80 0.79 0.75 0.75 0.71 0.68 0.69 0.68 0.69 0.70 0.70 0.69 0.67 0.66 0.64 0.60 0.56 0.55 0.55 0.54 0.54
0.24 0.27 0.30 0.31 0.36 0.45 0.51 0.54 0.58 0.61 0.62 0.62 0.63 0.68 0.70 0.74 0.76 0.79 0.81 0.80 0.76 0.70 0.69 0.67 0.65 0.63 0.63 0.62 0.61 0.61 0.61 0.60 0.58 0.57 0.56 0.55 0.53 0.52 0.51 0.52 0.52 0.52 0.51
0.24 0.26 0.29 0.30 0.31 0.39 0.46 0.50 0.52 0.56 0.58 0.60 0.61 0.64 0.69 0.72 0.71 0.71 0.70 0.73 0.71 0.65 0.63 0.61 0.59 0.58 0.57 0.57 0.56 0.55 0.53 0.52 0.51 0.50 0.49 0.49 0.50 0.50 0.48 0.48 0.48 0.46 0.45
0.25 0.26 0.28 0.28 0.29 0.33 0.40 0.45 0.48 0.51 0.53 0.56 0.58 0.62 0.65 0.65 0.66 0.66 0.64 0.63 0.62 0.59 0.58 0.56 0.55 0.54 0.53 0.53 0.52 0.50 0.49 0.47 0.47 0.47 0.46 0.46 0.47 0.45 0.43 0.39 0.36 0.33 0.31
0.24 0.25 0.26 0.27 0.28 0.30 0.35 0.41 0.44 0.46 0.48 0.50 0.53 0.55 0.58 0.59 0.60 0.60 0.60 0.59 0.59 0.58 0.58 0.56 0.53 0.52 0.51 0.49 0.48 0.46 0.44 0.43 0.42 0.39 0.36 0.34 0.33 0.32 0.31 0.29 0.28 0.27 0.26
0.24 0.24 0.25 0.26 0.27 0.27 0.31 0.36 0.39 0.42 0.44 0.46 0.48 0.51 0.52 0.50 0.52 0.54 0.55 0.56 0.56 0.55 0.55 0.54 0.52 0.50 0.50 0.49 0.47 0.41 0.35 0.32 0.31 0.31 0.28 0.28 0.26 0.26 0.25 0.22 0.21 0.20 0.19
0.23 0.23 0.24 0.24 0.25 0.26 0.28 0.31 0.34 0.37 0.39 0.41 0.43 0.45 0.47 0.48 0.48 0.48 0.50 0.52 0.52 0.52 0.52 0.51 0.50 0.48 0.44 0.37 0.32 0.29 0.28 0.27 0.27 0.26 0.24 0.22 0.20 0.21 0.20 0.20 0.20 0.19 0.18
0.22 0.22 0.22 0.23 0.23 0.24 0.26 0.28 0.31 0.33 0.35 0.37 0.38 0.40 0.43 0.44 0.44 0.44 0.45 0.47 0.48 0.48 0.48 0.46 0.41 0.32 0.28 0.27 0.26 0.26 0.26 0.26 0.25 0.24 0.23 0.21 0.20 0.20 0.20 0.19 0.18 0.17 0.16
0.19 0.21 0.22 0.22 0.22 0.22 0.24 0.25 0.27 0.29 0.31 0.32 0.35 0.36 0.38 0.39 0.41 0.41 0.41 0.42 0.42 0.41 0.37 0.32 0.29 0.27 0.26 0.25 0.24 0.24 0.24 0.24 0.23 0.22 0.22 0.21 0.20 0.20 0.20 0.18 0.17 0.16 0.15
Wind_Speed
25 26 27 30 31 31 32 32 32 31 31 30 32 33 34 35 36 38 39 39 40 40 40 41 41 40 40 41 41 40 40 39 37 36 35 33 31 31 30 29 29 29 28
26 26 27 28 29 30 30 31 32 32 32 32 32 32 33 33 35 37 39 40 41 41 42 42 42 41 41 40 41 41 41 41 39 38 37 35 33 32 31 29 28 28 27
25 26 27 27 29 30 30 30 30 31 31 31 32 33 34 35 35 35 36 38 40 41 41 41 41 40 41 41 40 40 40 41 42 41 39 39 35 33 31 30 28 28 27
28 28 28 29 29 30 30 30 30 29 30 30 31 32 31 32 33 33 34 34 34 36 37 38 37 38 37 37 37 38 38 39 41 43 41 40 38 35 33 31 30 29 29
27 28 29 29 30 31 31 30 31 30 30 30 30 30 30 29 30 31 31 31 31 32 32 34 34 34 34 35 36 35 38 38 39 40 41 39 38 35 33 31 31 30 30
28 28 28 29 30 30 31 30 30 29 29 29 29 29 28 28 28 28 29 29 29 29 30 32 32 32 34 34 34 35 36 37 36 38 39 38 37 35 33 32 32 30 30
28 28 27 28 29 29 31 31 31 30 29 27 27 27 28 29 28 27 27 26 27 27 27 29 30 30 30 30 30 30 32 33 34 36 35 35 34 34 33 32 32 32 31
27 27 26 26 27 29 29 31 31 30 30 29 27 27 27 28 29 29 28 28 27 25 26 26 27 28 28 28 27 27 28 29 30 31 33 34 33 33 33 32 32 33 32
25 27 26 26 26 25 27 28 31 31 31 30 28 27 26 26 27 28 28 29 29 27 27 27 26 26 27 27 28 28 28 29 30 31 30 31 31 31 31 31 31 32 32
25 26 28 27 27 27 25 27 28 30 30 30 31 29 27 27 27 28 29 28 28 27 27 27 27 27 26 26 26 27 27 29 29 30 30 30 30 30 31 32 32 32 32
27 27 28 29 28 28 28 27 27 28 29 30 30 30 28 26 28 28 28 27 29 29 28 27 27 28 27 26 26 26 26 27 28 28 29 30 30 31 31 32 32 32 32
29 29 28 28 28 29 29 29 28 29 29 30 29 29 29 27 27 29 28 28 27 28 27 26 26 27 27 28 27 27 26 25 26 27 27 28 29 29 29 29 30 30 30
31 30 29 29 28 28 28 29 28 29 29 30 29 29 29 28 27 27 27 29 29 27 28 27 26 26 26 27 28 27 26 27 27 26 26 25 26 27 27 28 28 27 26
30 31 32 31 30 29 28 28 28 28 28 29 30 29 27 26 27 30 26 27 26 25 28 27 25 24 25 25 27 28 27 26 25 25 21 22 22 22 22 22 22 23 23
31 32 32 33 33 31 29 29 29 29 28 28 29 27 27 26 26 26 27 27 25 24 23 23 22 20 20 24 24 24 22 22 20 22 24 22 21 20 20 21 20 20 20
31 32 33 33 33 33 32 30 28 28 29 30 28 29 29 24 22 23 23 23 24 22 24 23 22 22 20 19 20 20 21 20 19 19 19 19 20 20 19 20 21 21 21
31 32 33 34 34 34 34 33 30 28 27 27 28 28 26 26 26 22 21 22 21 20 21 21 21 20 20 18 18 19 18 18 18 19 19 20 20 20 20 20 21 21 22
32 33 33 34 34 34 34 34 33 31 29 28 26 28 27 24 25 25 25 22 23 21 22 21 20 21 20 20 20 20 19 19 18 18 18 19 19 20 20 20 20 20 21
33 33 34 35 35 35 34 33 33 32 31 29 28 28 27 27 27 26 26 26 25 24 23 22 22 22 21 21 20 20 19 19 18 18 19 19 19 19 19 19 19 20 20
31 33 34 35 35 35 35 34 33 32 31 31 30 30 30 29 27 27 26 26 26 26 26 25 23 22 22 21 21 20 19 19 19 19 18 18 18 18 18 18 19 20 21
27 29 30 33 34 36 34 34 33 33 32 32 31 32 32 31 30 29 28 27 26 26 26 25 24 22 22 21 21 20 20 19 19 18 17 17 17 17 17 17 18 19 19
21 24 28 30 32 33 34 34 33 34 33 32 31 31 32 31 31 30 28 27 27 27 26 26 24 23 22 21 21 21 20 20 19 18 17 17 17 16 17 18 19 20 21
15 19 23 25 28 30 33 33 33 34 34 32 32 31 32 30 30 30 29 28 27 27 27 26 26 25 24 23 22 22 21 21 20 20 19 19 19 19 20 20 21 21 22
15 15 18 22 25 28 30 33 32 32 33 32 32 32 31 31 30 29 30 29 29 28 27 27 26 24 24 23 22 22 21 21 21 20 20 20 20 20 21 21 22 22 23
13 14 15 18 21 24 27 29 31 32 33 33 33 33 32 31 31 30 29 28 28 28 27 27 26 26 25 24 23 23 22 22 21 21 21 21 22 22 23 23 23 25 25
13 13 14 17 19 22 26 27 29 30 31 33 32 32 32 32 31 31 30 29 29 28 27 26 26 27 26 25 24 24 24 23 23 23 23 23 23 24 25 25 26 26 27
Wind_Direction
239 237 235 233 232 232 233 235 237 239 239 241 241 242 243 245 245 247 247 247 248 248 248 249 250 250 250 249 249 249 249 249 249 247 246 244 242 240 240 241 242 244 246
240 237 236 231 230 231 233 236 238 239 241 241 243 245 246 247 249 250 249 249 249 249 249 250 249 250 250 250 249 250 248 247 247 244 242 242 242 239 239 241 242 244 245
240 237 236 236 233 234 236 237 238 240 240 242 245 246 248 250 252 251 250 250 251 251 250 248 248 249 249 249 249 249 249 246 244 242 239 238 240 237 238 240 242 244 246
241 241 239 239 239 237 237 238 238 239 242 243 247 249 249 250 251 250 250 249 251 250 248 248 246 247 246 244 247 248 248 248 244 239 237 236 236 238 238 239 243 245 247
243 242 241 241 241 238 237 238 239 241 243 245 247 247 248 249 249 249 248 248 250 249 247 244 243 245 244 244 248 249 247 248 244 238 236 234 234 236 236 240 243 246 248
243 242 243 243 241 240 237 238 238 240 243 246 246 244 245 247 247 247 247 248 249 244 246 244 243 245 244 247 248 250 247 243 238 235 234 233 233 236 237 239 242 246 250
242 241 242 242 241 241 237 238 237 239 241 244 244 244 245 245 246 245 245 244 246 244 247 243 243 243 244 244 245 248 242 236 234 232 231 232 234 235 238 239 243 246 250
240 240 240 241 241 241 241 238 237 238 240 242 244 246 246 245 245 245 245 243 244 244 242 242 243 243 241 241 240 241 235 232 231 230 232 234 236 237 239 243 245 248 252
241 240 241 242 240 243 240 239 237 238 239 240 242 244 245 246 244 243 241 242 242 243 244 243 241 240 240 239 237 236 235 232 231 231 232 233 234 236 238 243 246 248 254
244 243 241 242 240 239 241 240 240 238 239 239 241 243 246 246 244 243 241 239 239 242 242 242 241 240 239 236 233 232 233 230 230 230 232 233 235 239 240 246 249 253 258
245 244 243 242 241 241 241 241 241 240 239 239 239 241 243 248 243 241 240 240 241 239 241 241 241 237 237 233 231 230 231 232 231 232 233 236 238 243 247 249 253 258 259
245 244 243 243 241 242 242 242 242 242 241 240 239 240 243 246 243 239 238 240 237 235 236 238 239 236 237 233 229 229 229 228 231 235 240 242 245 248 251 251 253 257 261
245 244 243 243 243 242 243 242 243 243 241 240 240 241 240 242 241 239 242 236 234 234 237 237 237 236 235 232 231 230 230 236 239 236 234 238 247 249 249 255 255 258 259
247 245 244 243 244 243 243 242 241 241 242 240 239 239 239 239 241 236 237 232 232 237 234 234 234 232 232 230 232 231 233 232 232 238 230 237 244 242 246 250 254 255 260
249 246 245 242 243 243 243 241 241 240 241 240 237 237 234 239 233 232 231 230 229 228 224 221 217 220 225 227 224 223 225 226 233 233 234 237 237 242 249 255 256 256 259
251 248 245 243 243 240 239 240 240 241 240 239 237 234 232 231 228 228 222 218 221 222 217 216 213 215 219 218 217 213 215 219 229 230 229 234 241 244 250 255 258 259 263
252 249 245 243 241 238 238 236 236 237 237 236 232 228 227 226 221 215 211 211 204 204 201 202 212 210 209 209 208 214 223 230 232 231 234 240 246 250 255 257 262 266 268
254 250 246 242 240 237 236 235 235 235 234 230 227 223 219 219 216 212 208 207 209 208 209 212 213 210 212 217 222 226 231 236 237 238 242 246 250 253 257 260 262 265 268
254 249 247 242 239 236 235 234 232 232 228 225 222 220 218 215 216 216 216 215 215 216 215 216 219 223 225 226 227 230 233 237 238 241 245 248 252 254 258 261 265 268 270
255 251 245 240 237 235 233 231 228 226 224 223 223 221 220 219 218 216 219 218 219 221 221 221 222 225 227 228 230 233 235 238 241 244 246 249 251 254 259 263 267 271 275
257 248 245 238 234 232 230 228 226 224 224 223 224 223 222 221 220 220 221 221 220 219 220 221 223 225 228 230 234 236 238 239 238 241 246 250 253 258 263 268 271 276 279
260 249 241 236 232 230 228 226 225 223 223 222 223 222 221 220 219 219 220 219 219 220 221 222 224 227 231 233 234 234 236 235 237 242 247 251 255 259 266 272 277 281 283
271 253 240 235 230 227 226 224 224 222 222 222 221 221 215 217 219 219 218 219 220 221 222 224 228 231 234 236 236 235 235 235 240 244 248 253 258 263 269 274 280 283 285
274 260 244 233 230 226 225 222 222 220 219 220 218 217 216 218 218 218 218 219 221 223 224 227 229 232 233 233 234 234 235 238 241 245 251 256 262 266 270 275 281 283 285
277 259 245 235 230 227 222 219 220 219 217 216 217 219 218 217 218 219 218 219 222 224 226 228 230 231 231 232 235 236 239 242 244 249 255 259 264 268 273 277 281 284 288
273 264 250 238 232 227 220 219 218 216 217 216 216 215 215 217 219 220 221 223 223 225 227 228 231 231 232 234 237 238 241 245 248 253 258 263 266 270 272 275 279 284 286